Time,TemperatureF,DewpointF,PressureIn,WindDirection,WindDirectionDegrees,WindSpeedMPH,WindSpeedGustMPH,Humidity,HourlyPrecipIn,Conditions,Clouds,dailyrainin,SoftwareType,DateUTC
2013-08-06 00:01:00,56.0,31.0,30.11,SW,235,1.0,-999.0,39,-99.99,,,-99.99,,2013-08-06 06:01:00,
2013-08-06 01:53:00,50.0,34.0,30.10,East,92,1.0,-999.0,55,-99.99,,,-99.99,,2013-08-06 07:53:00,
2013-08-06 02:01:00,51.0,34.0,30.09,ESE,107,1.0,-999.0,51,-99.99,,,-99.99,,2013-08-06 08:01:00,
2013-08-06 02:11:00,52.0,33.0,30.09,SW,222,2.0,-999.0,48,-99.99,,,-99.99,,2013-08-06 08:11:00,
2013-08-06 02:32:00,51.0,31.0,30.09,ESE,105,1.0,-999.0,46,-99.99,,,-99.99,,2013-08-06 08:32:00,
2013-08-06 02:52:00,50.0,31.0,30.09,ESE,105,1.0,-999.0,48,-99.99,,,-99.99,,2013-08-06 08:52:00,
2013-08-06 03:01:00,51.0,31.0,30.09,ESE,105,0.0,-999.0,46,-99.99,,,-99.99,,2013-08-06 09:01:00,
2013-08-06 03:11:00,51.0,33.0,30.10,NNE,20,0.0,-999.0,50,-99.99,,,-99.99,,2013-08-06 09:11:00,
2013-08-06 04:01:00,45.0,33.0,30.11,NNW,342,2.0,-999.0,62,-99.99,,,-99.99,,2013-08-06 10:01:00,
2013-08-06 04:11:00,45.0,34.0,30.11,NNW,342,2.0,-999.0,65,-99.99,,,-99.99,,2013-08-06 10:11:00,
2013-08-06 04:42:00,48.0,34.0,30.12,NNW,336,3.0,-999.0,57,-99.99,,,-99.99,,2013-08-06 10:42:00,
2013-08-06 04:52:00,47.0,33.0,30.12,NE,43,1.0,-999.0,58,-99.99,,,-99.99,,2013-08-06 10:52:00,
2013-08-06 06:01:00,42.0,32.0,30.14,NNE,21,0.0,-999.0,68,-99.99,,,-99.99,,2013-08-06 12:01:00,
2013-08-06 06:11:00,42.0,32.0,30.14,NNE,21,1.0,-999.0,67,-99.99,,,-99.99,,2013-08-06 12:11:00,
2013-08-06 06:43:00,42.0,33.0,30.15,NNW,342,0.0,-999.0,69,-99.99,,,-99.99,,2013-08-06 12:43:00,
2013-08-06 06:52:00,41.0,32.0,30.16,NNE,20,2.0,-999.0,70,-99.99,,,-99.99,,2013-08-06 12:52:00,
2013-08-06 07:01:00,43.0,32.0,30.16,NNE,20,3.0,-999.0,65,-99.99,,,-99.99,,2013-08-06 13:01:00,
2013-08-06 07:11:00,43.0,33.0,30.19,NNE,15,2.0,-999.0,67,-99.99,,,-99.99,,2013-08-06 13:11:00,
2013-08-06 07:52:00,47.0,34.0,30.19,NE,37,1.0,-999.0,61,-99.99,,,-99.99,,2013-08-06 13:52:00,
2013-08-06 10:32:00,68.0,38.0,30.19,West,263,1.0,-999.0,33,-99.99,,,-99.99,,2013-08-06 16:32:00,
2013-08-06 10:52:00,70.0,38.0,30.18,SW,236,1.0,-999.0,31,-99.99,,,-99.99,,2013-08-06 16:52:00,
2013-08-06 12:01:00,76.0,38.0,30.18,SSE,164,4.0,-999.0,25,-99.99,,,-99.99,,2013-08-06 18:01:00,
2013-08-06 12:32:00,78.0,36.0,30.18,WSW,238,5.0,-999.0,22,-99.99,,,-99.99,,2013-08-06 18:32:00,
2013-08-06 12:52:00,79.0,36.0,30.17,WSW,243,10.0,-999.0,21,-99.99,,,-99.99,,2013-08-06 18:52:00,
2013-08-06 13:01:00,79.0,34.0,30.16,SW,221,8.0,-999.0,20,-99.99,,,-99.99,,2013-08-06 19:01:00,
2013-08-06 13:32:00,79.0,37.0,30.16,SW,223,7.0,-999.0,22,-99.99,,,-99.99,,2013-08-06 19:32:00,
2013-08-06 14:43:00,81.0,35.0,30.15,WSW,243,9.0,-999.0,19,-99.99,,,-99.99,,2013-08-06 20:43:00,
2013-08-06 15:43:00,82.0,31.0,30.14,South,179,9.0,-999.0,16,-99.99,,,-99.99,,2013-08-06 21:43:00,
2013-08-06 16:32:00,82.0,31.0,30.14,West,278,7.0,-999.0,16,-99.99,,,-99.99,,2013-08-06 22:32:00,
2013-08-06 17:32:00,82.0,31.0,30.13,NNW,329,6.0,-999.0,16,-99.99,,,-99.99,,2013-08-06 23:32:00,
2013-08-06 17:42:00,81.0,29.0,30.13,NW,311,8.0,-999.0,15,-99.99,,,-99.99,,2013-08-06 23:42:00,
2013-08-06 17:52:00,80.0,30.0,30.13,NNW,337,10.0,-999.0,16,-99.99,,,-99.99,,2013-08-06 23:52:00,
2013-08-06 18:01:00,80.0,31.0,30.14,NW,309,8.0,-999.0,17,-99.99,,,-99.99,,2013-08-07 00:01:00,
2013-08-06 18:11:00,81.0,32.0,30.14,WNW,296,7.0,-999.0,17,-99.99,,,-99.99,,2013-08-07 00:11:00,
2013-08-06 18:21:00,81.0,31.0,30.13,WNW,300,5.0,-999.0,16,-99.99,,,-99.99,,2013-08-07 00:21:00,
2013-08-06 18:43:00,80.0,31.0,30.13,NNW,347,6.0,-999.0,17,-99.99,,,-99.99,,2013-08-07 00:43:00,
2013-08-06 19:43:00,79.0,34.0,30.12,SW,233,0.0,-999.0,20,-99.99,,,-99.99,,2013-08-07 01:43:00,
2013-08-06 20:43:00,70.0,38.0,30.13,West,281,0.0,-999.0,31,-99.99,,,-99.99,,2013-08-07 02:43:00,
2013-08-06 22:21:00,57.0,39.0,30.13,WNW,282,0.0,-999.0,51,-99.99,,,-99.99,,2013-08-07 04:21:00,
2013-08-06 22:33:00,57.0,41.0,30.13,WNW,296,1.0,-999.0,54,-99.99,,,-99.99,,2013-08-07 04:33:00,
2013-08-06 22:42:00,58.0,41.0,30.13,WNW,296,0.0,-999.0,54,-99.99,,,-99.99,,2013-08-07 04:42:00,
2013-08-06 22:52:00,57.0,41.0,30.14,WNW,296,0.0,-999.0,55,-99.99,,,-99.99,,2013-08-07 04:52:00,
2013-08-06 23:02:00,57.0,41.0,30.14,WNW,296,0.0,-999.0,55,-99.99,,,-99.99,,2013-08-07 05:02:00,
2013-08-06 23:11:00,56.0,39.0,30.13,WNW,296,0.0,-999.0,53,-99.99,,,-99.99,,2013-08-07 05:11:00,
2013-08-06 23:32:00,57.0,39.0,30.13,NW,308,2.0,-999.0,50,-99.99,,,-99.99,,2013-08-07 05:32:00,
2013-08-06 23:43:00,57.0,39.0,30.14,NW,308,0.0,-999.0,50,-99.99,,,-99.99,,2013-08-07 05:43:00,
2013-08-06 23:52:00,57.0,38.0,30.14,NW,308,0.0,-999.0,49,-99.99,,,-99.99,,2013-08-07 05:52:00,